Location: Gradaro
(45.0833°N, 10.8833°E)
Time: 14:05:02
(UTC+00:00)

Cosmos 2228 Rocket - Pass Details

Date: 29 November 2020
Orbit: 618 x 652 km, 82.5° (Epoch: 24 January)

Event Time Altitude Azimuth Distance (km) Brightness Sun altitude
Rises 05:43:58 0° 341° (NNW) 2,921 6.1 -8.5°
Reaches altitude 10° 05:46:24 10° 331° (NNW) 2,004 5.2 -8.2°
Maximum altitude 05:50:17 31° 270° (W) 1,105 3.9 -7.5°
Drops below altitude 10° 05:54:08 10° 209° (SSW) 1,980 5.6 -6.9°
Sets 05:56:31 0° 199° (SSW) 2,879 6.6 -6.5°
